Year,Month,Day,Hour,Minute,Value (Times are PST for temperature in C)
2005,09,27,00,00,9.60
2005,09,27,00,01,9.50
2005,09,27,00,02,9.50
2005,09,27,00,03,9.50
2005,09,27,00,04,9.50
2005,09,27,00,05,9.50
2005,09,27,00,06,9.40
2005,09,27,00,07,9.40
2005,09,27,00,08,9.40
2005,09,27,00,09,9.40
2005,09,27,00,10,9.40
2005,09,27,00,11,9.30
2005,09,27,00,12,9.30
2005,09,27,00,13,9.20
2005,09,27,00,14,9.20
2005,09,27,00,15,9.20
2005,09,27,00,16,9.20
2005,09,27,00,17,9.10
2005,09,27,00,18,9.10
2005,09,27,00,19,9.00
2005,09,27,00,20,9.00
2005,09,27,00,21,8.90
2005,09,27,00,22,8.90
2005,09,27,00,23,8.90
2005,09,27,00,24,8.80
2005,09,27,00,25,8.80
2005,09,27,00,26,8.80
2005,09,27,00,27,8.80
2005,09,27,00,28,8.80
2005,09,27,00,29,8.80
2005,09,27,00,30,8.70
2005,09,27,00,31,8.70
2005,09,27,00,32,8.70
2005,09,27,00,33,8.70
2005,09,27,00,34,8.70
2005,09,27,00,35,8.70
2005,09,27,00,36,8.70
2005,09,27,00,37,8.70
2005,09,27,00,38,8.70
2005,09,27,00,39,8.70
2005,09,27,00,40,8.70
2005,09,27,00,41,8.70
2005,09,27,00,42,8.70
2005,09,27,00,43,8.70
2005,09,27,00,44,8.70
2005,09,27,00,45,8.70
2005,09,27,00,46,8.70
2005,09,27,00,47,8.70
2005,09,27,00,48,8.70
2005,09,27,00,49,8.70
2005,09,27,00,50,8.70
2005,09,27,00,51,8.70
2005,09,27,00,52,8.70
2005,09,27,00,53,8.70
2005,09,27,00,54,8.70
2005,09,27,00,55,8.70
2005,09,27,00,56,8.70
2005,09,27,00,57,8.70
2005,09,27,00,58,8.70
2005,09,27,00,59,8.70
2005,09,27,01,00,8.70
2005,09,27,01,01,8.70
2005,09,27,01,02,8.70
2005,09,27,01,03,8.70
2005,09,27,01,04,8.70
2005,09,27,01,05,8.70
2005,09,27,01,06,8.70
2005,09,27,01,07,8.70
2005,09,27,01,08,8.70
2005,09,27,01,09,8.70
2005,09,27,01,10,8.70
2005,09,27,01,11,8.70
2005,09,27,01,12,8.70
2005,09,27,01,13,8.60
2005,09,27,01,14,8.60
2005,09,27,01,15,8.60
2005,09,27,01,16,8.60
2005,09,27,01,17,8.60
2005,09,27,01,18,8.60
2005,09,27,01,19,8.60
2005,09,27,01,20,8.50
2005,09,27,01,21,8.50
2005,09,27,01,22,8.50
2005,09,27,01,23,8.50
2005,09,27,01,24,8.50
2005,09,27,01,25,8.50
2005,09,27,01,26,8.40
2005,09,27,01,27,8.40
2005,09,27,01,28,8.40
2005,09,27,01,29,8.40
2005,09,27,01,30,8.40
2005,09,27,01,31,8.40
2005,09,27,01,32,8.40
2005,09,27,01,33,8.40
2005,09,27,01,34,8.40
2005,09,27,01,35,8.40
2005,09,27,01,36,8.40
2005,09,27,01,37,8.30
2005,09,27,01,38,8.30
2005,09,27,01,39,8.30
2005,09,27,01,40,8.30
2005,09,27,01,41,8.30
2005,09,27,01,42,8.30
2005,09,27,01,43,8.20
2005,09,27,01,44,8.20
2005,09,27,01,45,8.20
2005,09,27,01,46,8.20
2005,09,27,01,47,8.20
2005,09,27,01,48,8.20
2005,09,27,01,49,8.20
2005,09,27,01,50,8.20
2005,09,27,01,51,8.20
2005,09,27,01,52,8.20
2005,09,27,01,53,8.10
2005,09,27,01,54,8.10
2005,09,27,01,55,8.10
2005,09,27,01,56,8.10
2005,09,27,01,57,8.10
2005,09,27,01,58,8.10
2005,09,27,01,59,8.10
2005,09,27,02,00,8.10
2005,09,27,02,01,8.10
2005,09,27,02,02,8.10
2005,09,27,02,03,8.10
2005,09,27,02,04,8.10
2005,09,27,02,05,8.10
2005,09,27,02,06,8.00
2005,09,27,02,07,8.00
2005,09,27,02,08,8.00
2005,09,27,02,09,8.00
2005,09,27,02,10,8.00
2005,09,27,02,11,8.00
2005,09,27,02,12,8.00
2005,09,27,02,13,8.00
2005,09,27,02,14,8.00
2005,09,27,02,15,8.00
2005,09,27,02,16,7.90
2005,09,27,02,17,7.90
2005,09,27,02,18,7.90
2005,09,27,02,19,7.80
2005,09,27,02,20,7.80
2005,09,27,02,21,7.80
2005,09,27,02,22,7.80
2005,09,27,02,23,7.80
2005,09,27,02,24,7.80
2005,09,27,02,25,7.80
2005,09,27,02,26,7.80
2005,09,27,02,27,7.80
2005,09,27,02,28,7.80
2005,09,27,02,29,7.80
2005,09,27,02,30,7.80
2005,09,27,02,31,7.80
2005,09,27,02,32,7.80
2005,09,27,02,33,7.80
2005,09,27,02,34,7.80
2005,09,27,02,35,7.80
2005,09,27,02,36,7.70
2005,09,27,02,37,7.70
2005,09,27,02,38,7.70
2005,09,27,02,39,7.70
2005,09,27,02,40,7.70
2005,09,27,02,41,7.70
2005,09,27,02,42,7.70
2005,09,27,02,43,7.70
2005,09,27,02,44,7.70
2005,09,27,02,45,7.80
2005,09,27,02,46,7.80
2005,09,27,02,47,7.80
2005,09,27,02,48,7.80
2005,09,27,02,49,7.80
2005,09,27,02,50,7.80
2005,09,27,02,51,7.70
2005,09,27,02,52,7.70
2005,09,27,02,53,7.70
2005,09,27,02,54,7.70
2005,09,27,02,55,7.60
2005,09,27,02,56,7.60
2005,09,27,02,57,7.60
2005,09,27,02,58,7.60
2005,09,27,02,59,7.60
2005,09,27,03,00,7.60
2005,09,27,03,01,7.60
2005,09,27,03,02,7.60
2005,09,27,03,03,7.60
2005,09,27,03,04,7.60
2005,09,27,03,05,7.60
2005,09,27,03,06,7.60
2005,09,27,03,07,7.60
2005,09,27,03,08,7.60
2005,09,27,03,09,7.60
2005,09,27,03,10,7.60
2005,09,27,03,11,7.60
2005,09,27,03,12,7.60
2005,09,27,03,13,7.70
2005,09,27,03,14,7.80
2005,09,27,03,15,7.80
2005,09,27,03,16,7.80
2005,09,27,03,17,7.80
2005,09,27,03,18,7.90
2005,09,27,03,19,7.90
2005,09,27,03,20,7.90
2005,09,27,03,21,7.90
2005,09,27,03,22,7.90
2005,09,27,03,23,8.00
2005,09,27,03,24,8.00
2005,09,27,03,25,8.00
2005,09,27,03,26,8.00
2005,09,27,03,27,8.00
2005,09,27,03,28,8.10
2005,09,27,03,29,8.10
2005,09,27,03,30,8.20
2005,09,27,03,31,8.20
2005,09,27,03,32,8.20
2005,09,27,03,33,8.20
2005,09,27,03,34,8.20
2005,09,27,03,35,8.30
2005,09,27,03,36,8.30
2005,09,27,03,37,8.40
2005,09,27,03,38,8.40
2005,09,27,03,39,8.30
2005,09,27,03,40,8.30
2005,09,27,03,41,8.20
2005,09,27,03,42,8.20
2005,09,27,03,43,8.20
2005,09,27,03,44,8.20
2005,09,27,03,45,8.20
2005,09,27,03,46,8.20
2005,09,27,03,47,8.20
2005,09,27,03,48,8.20
2005,09,27,03,49,8.20
2005,09,27,03,50,8.20
2005,09,27,03,51,8.20
2005,09,27,03,52,8.20
2005,09,27,03,53,8.20
2005,09,27,03,54,8.20
2005,09,27,03,55,8.10
2005,09,27,03,56,8.10
2005,09,27,03,57,8.10
2005,09,27,03,58,8.10
2005,09,27,03,59,8.10
2005,09,27,04,00,8.10
2005,09,27,04,01,8.10
2005,09,27,04,02,8.10
2005,09,27,04,03,8.10
2005,09,27,04,04,8.10
2005,09,27,04,05,8.10
2005,09,27,04,06,8.10
2005,09,27,04,07,8.10
2005,09,27,04,08,8.10
2005,09,27,04,09,8.10
2005,09,27,04,10,8.10
2005,09,27,04,11,8.20
2005,09,27,04,12,8.20
2005,09,27,04,13,8.20
2005,09,27,04,14,8.20
2005,09,27,04,15,8.20
2005,09,27,04,16,8.20
2005,09,27,04,17,8.30
2005,09,27,04,18,8.30
2005,09,27,04,19,8.30
2005,09,27,04,20,8.30
2005,09,27,04,21,8.30
2005,09,27,04,22,8.30
2005,09,27,04,23,8.40
2005,09,27,04,24,8.40
2005,09,27,04,25,8.50
2005,09,27,04,26,8.50
2005,09,27,04,27,8.50
2005,09,27,04,28,8.50
2005,09,27,04,29,8.60
2005,09,27,04,30,8.60
2005,09,27,04,31,8.70
2005,09,27,04,32,8.70
2005,09,27,04,33,8.70
2005,09,27,04,34,8.80
2005,09,27,04,35,8.90
2005,09,27,04,36,8.90
2005,09,27,04,37,9.00
2005,09,27,04,38,8.90
2005,09,27,04,39,8.90
2005,09,27,04,40,8.90
2005,09,27,04,41,8.90
2005,09,27,04,42,8.80
2005,09,27,04,43,8.70
2005,09,27,04,44,8.60
2005,09,27,04,45,8.50
2005,09,27,04,46,8.40
2005,09,27,04,47,8.40
2005,09,27,04,48,8.40
2005,09,27,04,49,8.30
2005,09,27,04,50,8.30
2005,09,27,04,51,8.30
2005,09,27,04,52,8.20
2005,09,27,04,53,8.20
2005,09,27,04,54,8.20
2005,09,27,04,55,8.20
2005,09,27,04,56,8.20
2005,09,27,04,57,8.20
2005,09,27,04,58,8.20
2005,09,27,04,59,8.20
2005,09,27,05,00,8.20
2005,09,27,05,01,8.30
2005,09,27,05,02,8.30
2005,09,27,05,03,8.30
2005,09,27,05,04,8.40
2005,09,27,05,05,8.40
2005,09,27,05,06,8.40
2005,09,27,05,07,8.40
2005,09,27,05,08,8.40
2005,09,27,05,09,8.50
2005,09,27,05,10,8.50
2005,09,27,05,11,8.60
2005,09,27,05,12,8.60
2005,09,27,05,13,8.70
2005,09,27,05,14,8.70
2005,09,27,05,15,8.70
2005,09,27,05,16,8.70
2005,09,27,05,17,8.70
2005,09,27,05,18,8.80
2005,09,27,05,19,8.80
2005,09,27,05,20,8.80
2005,09,27,05,21,8.80
2005,09,27,05,22,8.80
2005,09,27,05,23,8.80
2005,09,27,05,24,8.80
2005,09,27,05,25,8.80
2005,09,27,05,26,8.80
2005,09,27,05,27,8.80
2005,09,27,05,28,8.80
2005,09,27,05,29,8.70
2005,09,27,05,30,8.70
2005,09,27,05,31,8.70
2005,09,27,05,32,8.70
2005,09,27,05,33,8.70
2005,09,27,05,34,8.70
2005,09,27,05,35,8.70
2005,09,27,05,36,8.80
2005,09,27,05,37,8.80
2005,09,27,05,38,8.90
2005,09,27,05,39,8.90
2005,09,27,05,40,8.90
2005,09,27,05,41,8.90
2005,09,27,05,42,8.80
2005,09,27,05,43,8.80
2005,09,27,05,44,8.80
2005,09,27,05,45,8.70
2005,09,27,05,46,8.70
2005,09,27,05,47,8.70
2005,09,27,05,48,8.70
2005,09,27,05,49,8.80
2005,09,27,05,50,8.80
2005,09,27,05,51,8.80
2005,09,27,05,52,8.80
2005,09,27,05,53,8.80
2005,09,27,05,54,8.80
2005,09,27,05,55,8.80
2005,09,27,05,56,8.70
2005,09,27,05,57,8.70
2005,09,27,05,58,8.60
2005,09,27,05,59,8.50
2005,09,27,06,00,8.40
2005,09,27,06,01,8.30
2005,09,27,06,02,8.30
2005,09,27,06,03,8.30
2005,09,27,06,04,8.40
2005,09,27,06,05,8.40
2005,09,27,06,06,8.40
2005,09,27,06,07,8.50
2005,09,27,06,08,8.50
2005,09,27,06,09,8.50
2005,09,27,06,10,8.50
2005,09,27,06,11,8.50
2005,09,27,06,12,8.40
2005,09,27,06,13,8.40
2005,09,27,06,14,8.40
2005,09,27,06,15,8.40
2005,09,27,06,16,8.40
2005,09,27,06,17,8.40
2005,09,27,06,18,8.30
2005,09,27,06,19,8.30
2005,09,27,06,20,8.30
2005,09,27,06,21,8.20
2005,09,27,06,22,8.20
2005,09,27,06,23,8.20
2005,09,27,06,24,8.10
2005,09,27,06,25,8.00
2005,09,27,06,26,8.00
2005,09,27,06,27,7.90
2005,09,27,06,28,7.80
2005,09,27,06,29,7.70
2005,09,27,06,30,7.60
2005,09,27,06,31,7.60
2005,09,27,06,32,7.50
2005,09,27,06,33,7.50
2005,09,27,06,34,7.40
2005,09,27,06,35,7.40
2005,09,27,06,36,7.40
2005,09,27,06,37,7.30
2005,09,27,06,38,7.30
2005,09,27,06,39,7.30
2005,09,27,06,40,7.30
2005,09,27,06,41,7.30
2005,09,27,06,42,7.30
2005,09,27,06,43,7.20
2005,09,27,06,44,7.20
2005,09,27,06,45,7.20
2005,09,27,06,46,7.20
2005,09,27,06,47,7.20
2005,09,27,06,48,7.20
2005,09,27,06,49,7.20
2005,09,27,06,50,7.20
2005,09,27,06,51,7.20
2005,09,27,06,52,7.20
2005,09,27,06,53,7.20
2005,09,27,06,54,7.20
2005,09,27,06,55,7.20
2005,09,27,06,56,7.20
2005,09,27,06,57,7.30
2005,09,27,06,58,7.30
2005,09,27,06,59,7.30
2005,09,27,07,00,7.30
2005,09,27,07,01,7.30
2005,09,27,07,02,7.30
2005,09,27,07,03,7.30
2005,09,27,07,04,7.20
2005,09,27,07,05,7.10
2005,09,27,07,06,7.10
2005,09,27,07,07,7.00
2005,09,27,07,08,7.00
2005,09,27,07,09,7.00
2005,09,27,07,10,6.90
2005,09,27,07,11,6.90
2005,09,27,07,12,6.90
2005,09,27,07,13,6.90
2005,09,27,07,14,6.90
2005,09,27,07,15,6.90
2005,09,27,07,16,6.90
2005,09,27,07,17,6.90
2005,09,27,07,18,6.90
2005,09,27,07,19,6.90
2005,09,27,07,20,6.90
2005,09,27,07,21,6.90
2005,09,27,07,22,6.90
2005,09,27,07,23,6.90
2005,09,27,07,24,6.90
2005,09,27,07,25,6.90
2005,09,27,07,26,6.90
2005,09,27,07,27,7.00
2005,09,27,07,28,7.00
2005,09,27,07,29,7.00
2005,09,27,07,30,7.00
2005,09,27,07,31,7.00
2005,09,27,07,32,7.00
2005,09,27,07,33,7.00
2005,09,27,07,34,7.00
2005,09,27,07,35,6.90
2005,09,27,07,36,6.90
2005,09,27,07,37,6.90
2005,09,27,07,38,6.90
2005,09,27,07,39,6.90
2005,09,27,07,40,6.80
2005,09,27,07,41,6.80
2005,09,27,07,42,6.80
2005,09,27,07,43,6.80
2005,09,27,07,44,6.90
2005,09,27,07,45,6.90
2005,09,27,07,46,6.90
2005,09,27,07,47,7.00
2005,09,27,07,48,7.10
2005,09,27,07,49,7.20
2005,09,27,07,50,7.20
2005,09,27,07,51,7.30
2005,09,27,07,52,7.40
2005,09,27,07,53,7.50
2005,09,27,07,54,7.50
2005,09,27,07,55,7.60
2005,09,27,07,56,7.70
2005,09,27,07,57,7.80
2005,09,27,07,58,7.80
2005,09,27,07,59,7.90
2005,09,27,08,00,7.90
2005,09,27,08,01,8.00
2005,09,27,08,02,8.00
2005,09,27,08,03,8.10
2005,09,27,08,04,8.10
2005,09,27,08,05,8.20
2005,09,27,08,06,8.20
2005,09,27,08,07,8.20
2005,09,27,08,08,8.30
2005,09,27,08,09,8.40
2005,09,27,08,10,8.40
2005,09,27,08,11,8.50
2005,09,27,08,12,8.50
2005,09,27,08,13,8.50
2005,09,27,08,14,8.60
2005,09,27,08,15,8.70
2005,09,27,08,16,8.70
2005,09,27,08,17,8.80
2005,09,27,08,18,8.90
2005,09,27,08,19,9.00
2005,09,27,08,20,9.10
2005,09,27,08,21,9.20
2005,09,27,08,22,9.30
2005,09,27,08,23,9.40
2005,09,27,08,24,9.60
2005,09,27,08,25,9.70
2005,09,27,08,26,9.90
2005,09,27,08,27,10.00
2005,09,27,08,28,10.10
2005,09,27,08,29,10.20
2005,09,27,08,30,10.30
2005,09,27,08,31,10.40
2005,09,27,08,32,10.50
2005,09,27,08,33,10.70
2005,09,27,08,34,10.80
2005,09,27,08,35,10.90
2005,09,27,08,36,11.00
2005,09,27,08,37,11.10
2005,09,27,08,38,11.10
2005,09,27,08,39,11.10
2005,09,27,08,40,11.20
2005,09,27,08,41,11.30
2005,09,27,08,42,11.40
2005,09,27,08,43,11.50
2005,09,27,08,44,11.60
2005,09,27,08,45,11.60
2005,09,27,08,46,11.70
2005,09,27,08,47,11.70
2005,09,27,08,48,11.80
2005,09,27,08,49,11.80
2005,09,27,08,50,11.90
2005,09,27,08,51,11.90
2005,09,27,08,52,12.00
2005,09,27,08,53,12.10
2005,09,27,08,54,12.30
2005,09,27,08,55,12.40
2005,09,27,08,56,12.50
2005,09,27,08,57,12.50
2005,09,27,08,58,12.60
2005,09,27,08,59,12.60
2005,09,27,09,00,12.60
2005,09,27,09,01,12.70
2005,09,27,09,02,12.70
2005,09,27,09,03,12.80
2005,09,27,09,04,12.80
2005,09,27,09,05,12.90
2005,09,27,09,06,13.00
2005,09,27,09,07,13.10
2005,09,27,09,08,13.20
2005,09,27,09,09,13.30
2005,09,27,09,10,13.30
2005,09,27,09,11,13.30
2005,09,27,09,12,13.30
2005,09,27,09,13,13.30
2005,09,27,09,14,13.40
2005,09,27,09,15,13.50
2005,09,27,09,16,13.50
2005,09,27,09,17,13.60
2005,09,27,09,18,13.70
2005,09,27,09,19,13.70
2005,09,27,09,20,13.80
2005,09,27,09,21,13.90
2005,09,27,09,22,14.00
2005,09,27,09,23,14.00
2005,09,27,09,24,14.00
2005,09,27,09,25,13.90
2005,09,27,09,26,13.90
2005,09,27,09,27,14.00
2005,09,27,09,28,14.00
2005,09,27,09,29,14.00
2005,09,27,09,30,14.00
2005,09,27,09,31,14.00
2005,09,27,09,32,14.10
2005,09,27,09,33,14.00
2005,09,27,09,34,14.00
2005,09,27,09,35,14.00
2005,09,27,09,36,14.00
2005,09,27,09,37,14.00
2005,09,27,09,38,14.00
2005,09,27,09,39,14.00
2005,09,27,09,40,14.10
2005,09,27,09,41,14.20
2005,09,27,09,42,14.30
2005,09,27,09,43,14.40
2005,09,27,09,44,14.50
2005,09,27,09,45,14.60
2005,09,27,09,46,14.60
2005,09,27,09,47,14.40
2005,09,27,09,48,14.30
2005,09,27,09,49,14.20
2005,09,27,09,50,14.20
2005,09,27,09,51,14.20
2005,09,27,09,52,14.30
2005,09,27,09,53,14.40
2005,09,27,09,54,14.50
2005,09,27,09,55,14.60
2005,09,27,09,56,14.60
2005,09,27,09,57,14.60
2005,09,27,09,58,14.60
2005,09,27,09,59,14.50
2005,09,27,10,00,14.40
2005,09,27,10,01,14.30
2005,09,27,10,02,14.20
2005,09,27,10,03,14.30
2005,09,27,10,04,14.40
2005,09,27,10,05,14.50
2005,09,27,10,06,14.60
2005,09,27,10,07,14.70
2005,09,27,10,08,14.80
2005,09,27,10,09,14.90
2005,09,27,10,10,15.00
2005,09,27,10,11,15.00
2005,09,27,10,12,15.10
2005,09,27,10,13,15.10
2005,09,27,10,14,15.20
2005,09,27,10,15,15.20
2005,09,27,10,16,15.30
2005,09,27,10,17,15.40
2005,09,27,10,18,15.40
2005,09,27,10,19,15.40
2005,09,27,10,20,15.40
2005,09,27,10,21,15.30
2005,09,27,10,22,15.20
2005,09,27,10,23,15.10
2005,09,27,10,24,15.10
2005,09,27,10,25,15.00
2005,09,27,10,26,15.00
2005,09,27,10,27,15.00
2005,09,27,10,28,15.10
2005,09,27,10,29,15.10
2005,09,27,10,30,15.10
2005,09,27,10,31,15.20
2005,09,27,10,32,15.30
2005,09,27,10,33,15.20
2005,09,27,10,34,15.20
2005,09,27,10,35,15.30
2005,09,27,10,36,15.40
2005,09,27,10,37,15.50
2005,09,27,10,38,15.70
2005,09,27,10,39,15.70
2005,09,27,10,40,15.70
2005,09,27,10,41,15.80
2005,09,27,10,42,15.70
2005,09,27,10,43,15.60
2005,09,27,10,44,15.60
2005,09,27,10,45,15.70
2005,09,27,10,46,15.80
2005,09,27,10,47,15.90
2005,09,27,10,48,16.10
2005,09,27,10,49,16.20
2005,09,27,10,50,16.30
2005,09,27,10,51,16.30
2005,09,27,10,52,16.40
2005,09,27,10,53,16.40
2005,09,27,10,54,16.40
2005,09,27,10,55,16.30
2005,09,27,10,56,16.20
2005,09,27,10,57,16.10
2005,09,27,10,58,16.10
2005,09,27,10,59,16.10
2005,09,27,11,00,16.10
2005,09,27,11,01,16.10
2005,09,27,11,02,16.10
2005,09,27,11,03,15.90
2005,09,27,11,04,15.90
2005,09,27,11,05,15.80
2005,09,27,11,06,15.80
2005,09,27,11,07,15.80
2005,09,27,11,08,15.80
2005,09,27,11,09,15.80
2005,09,27,11,10,15.80
2005,09,27,11,11,15.90
2005,09,27,11,12,16.10
2005,09,27,11,13,16.00
2005,09,27,11,14,15.90
2005,09,27,11,15,15.90
2005,09,27,11,16,16.10
2005,09,27,11,17,16.10
2005,09,27,11,18,16.10
2005,09,27,11,19,16.20
2005,09,27,11,20,16.10
2005,09,27,11,21,16.20
2005,09,27,11,22,16.30
2005,09,27,11,23,16.40
2005,09,27,11,24,16.50
2005,09,27,11,25,16.60
2005,09,27,11,26,16.70
2005,09,27,11,27,16.70
2005,09,27,11,28,16.70
2005,09,27,11,29,16.60
2005,09,27,11,30,16.60
2005,09,27,11,31,16.40
2005,09,27,11,32,16.40
2005,09,27,11,33,16.40
2005,09,27,11,34,16.50
2005,09,27,11,35,16.50
2005,09,27,11,36,16.40
2005,09,27,11,37,16.40
2005,09,27,11,38,16.30
2005,09,27,11,39,16.20
2005,09,27,11,40,16.30
2005,09,27,11,41,16.30
2005,09,27,11,42,16.30
2005,09,27,11,43,16.40
2005,09,27,11,44,16.50
2005,09,27,11,45,16.60
2005,09,27,11,46,16.70
2005,09,27,11,47,16.70
2005,09,27,11,48,16.70
2005,09,27,11,49,16.80
2005,09,27,11,50,16.90
2005,09,27,11,51,17.00
2005,09,27,11,52,17.00
2005,09,27,11,53,17.10
2005,09,27,11,54,17.10
2005,09,27,11,55,17.10
2005,09,27,11,56,17.10
2005,09,27,11,57,17.20
2005,09,27,11,58,17.20
2005,09,27,11,59,17.20
2005,09,27,12,00,17.30
2005,09,27,12,01,17.30
2005,09,27,12,02,17.30
2005,09,27,12,03,17.20
2005,09,27,12,04,17.10
2005,09,27,12,05,17.10
2005,09,27,12,06,17.00
2005,09,27,12,07,16.90
2005,09,27,12,08,16.80
2005,09,27,12,09,16.90
2005,09,27,12,10,16.90
2005,09,27,12,11,16.90
2005,09,27,12,12,16.90
2005,09,27,12,13,16.90
2005,09,27,12,14,17.00
2005,09,27,12,15,17.00
2005,09,27,12,16,16.90
2005,09,27,12,17,16.90
2005,09,27,12,18,16.90
2005,09,27,12,19,16.90
2005,09,27,12,20,16.90
2005,09,27,12,21,17.00
2005,09,27,12,22,17.10
2005,09,27,12,23,17.20
2005,09,27,12,24,17.30
2005,09,27,12,25,17.30
2005,09,27,12,26,17.30
2005,09,27,12,27,17.30
2005,09,27,12,28,17.30
2005,09,27,12,29,17.30
2005,09,27,12,30,17.30
2005,09,27,12,31,17.20
2005,09,27,12,32,17.20
2005,09,27,12,33,17.10
2005,09,27,12,34,17.00
2005,09,27,12,35,17.00
2005,09,27,12,36,17.10
2005,09,27,12,37,17.30
2005,09,27,12,38,17.40
2005,09,27,12,39,17.40
2005,09,27,12,40,17.40
2005,09,27,12,41,17.30
2005,09,27,12,42,17.40
2005,09,27,12,43,17.50
2005,09,27,12,44,17.60
2005,09,27,12,45,17.60
2005,09,27,12,46,17.60
2005,09,27,12,47,17.60
2005,09,27,12,48,17.60
2005,09,27,12,49,17.60
2005,09,27,12,50,17.60
2005,09,27,12,51,17.60
2005,09,27,12,52,17.70
2005,09,27,12,53,17.60
2005,09,27,12,54,17.50
2005,09,27,12,55,17.50
2005,09,27,12,56,17.60
2005,09,27,12,57,17.60
2005,09,27,12,58,17.70
2005,09,27,12,59,17.80
2005,09,27,13,00,17.80
2005,09,27,13,01,17.80
2005,09,27,13,02,17.80
2005,09,27,13,03,17.70
2005,09,27,13,04,17.50
2005,09,27,13,05,17.30
2005,09,27,13,06,17.30
2005,09,27,13,07,17.20
2005,09,27,13,08,17.30
2005,09,27,13,09,17.40
2005,09,27,13,10,17.50
2005,09,27,13,11,17.60
2005,09,27,13,12,17.70
2005,09,27,13,13,17.70
2005,09,27,13,14,17.60
2005,09,27,13,15,17.40
2005,09,27,13,16,17.30
2005,09,27,13,17,17.30
2005,09,27,13,18,17.30
2005,09,27,13,19,17.30
2005,09,27,13,20,17.30
2005,09,27,13,21,17.40
2005,09,27,13,22,17.50
2005,09,27,13,23,17.60
2005,09,27,13,24,17.60
2005,09,27,13,25,17.60
2005,09,27,13,26,17.60
2005,09,27,13,27,17.60
2005,09,27,13,28,17.50
2005,09,27,13,29,17.50
2005,09,27,13,30,17.60
2005,09,27,13,31,17.80
2005,09,27,13,32,17.90
2005,09,27,13,33,17.90
2005,09,27,13,34,18.00
2005,09,27,13,35,18.10
2005,09,27,13,36,18.10
2005,09,27,13,37,18.10
2005,09,27,13,38,18.20
2005,09,27,13,39,18.30
2005,09,27,13,40,18.40
2005,09,27,13,41,18.50
2005,09,27,13,42,18.50
2005,09,27,13,43,18.40
2005,09,27,13,44,18.50
2005,09,27,13,45,18.50
2005,09,27,13,46,18.50
2005,09,27,13,47,18.50
2005,09,27,13,48,18.40
2005,09,27,13,49,18.40
2005,09,27,13,50,18.50
2005,09,27,13,51,18.60
2005,09,27,13,52,18.60
2005,09,27,13,53,18.70
2005,09,27,13,54,18.40
2005,09,27,13,55,18.00
2005,09,27,13,56,17.40
2005,09,27,13,57,17.00
2005,09,27,13,58,16.80
2005,09,27,13,59,16.80
2005,09,27,14,00,16.80
2005,09,27,14,01,16.80
2005,09,27,14,02,16.70
2005,09,27,14,03,16.70
2005,09,27,14,04,16.70
2005,09,27,14,05,16.70
2005,09,27,14,06,16.60
2005,09,27,14,07,16.50
2005,09,27,14,08,16.40
2005,09,27,14,09,16.50
2005,09,27,14,10,16.60
2005,09,27,14,11,16.70
2005,09,27,14,12,16.70
2005,09,27,14,13,16.70
2005,09,27,14,14,16.70
2005,09,27,14,15,16.70
2005,09,27,14,16,16.50
2005,09,27,14,17,16.40
2005,09,27,14,18,16.40
2005,09,27,14,19,16.30
2005,09,27,14,20,16.30
2005,09,27,14,21,16.40
2005,09,27,14,22,16.30
2005,09,27,14,23,16.30
2005,09,27,14,24,16.30
2005,09,27,14,25,16.20
2005,09,27,14,26,16.10
2005,09,27,14,27,16.10
2005,09,27,14,28,16.10
2005,09,27,14,29,16.10
2005,09,27,14,30,16.10
2005,09,27,14,31,16.10
2005,09,27,14,32,16.10
2005,09,27,14,33,16.10
2005,09,27,14,34,16.10
2005,09,27,14,35,16.10
2005,09,27,14,36,16.10
2005,09,27,14,37,16.20
2005,09,27,14,38,16.20
2005,09,27,14,39,16.20
2005,09,27,14,40,15.90
2005,09,27,14,41,16.00
2005,09,27,14,42,16.10
2005,09,27,14,43,16.10
2005,09,27,14,44,16.10
2005,09,27,14,45,16.20
2005,09,27,14,46,16.20
2005,09,27,14,47,16.30
2005,09,27,14,48,16.30
2005,09,27,14,49,16.40
2005,09,27,14,50,16.40
2005,09,27,14,51,16.40
2005,09,27,14,52,16.30
2005,09,27,14,53,16.30
2005,09,27,14,54,16.40
2005,09,27,14,55,16.40
2005,09,27,14,56,16.40
2005,09,27,14,57,16.40
2005,09,27,14,58,16.30
2005,09,27,14,59,16.20
2005,09,27,15,00,16.20
2005,09,27,15,01,16.20
2005,09,27,15,02,16.30
2005,09,27,15,03,16.30
2005,09,27,15,04,16.40
2005,09,27,15,05,16.40
2005,09,27,15,06,16.40
2005,09,27,15,07,16.40
2005,09,27,15,08,16.40
2005,09,27,15,09,16.40
2005,09,27,15,10,16.40
2005,09,27,15,11,16.40
2005,09,27,15,12,16.40
2005,09,27,15,13,16.40
2005,09,27,15,14,16.40
2005,09,27,15,15,16.40
2005,09,27,15,16,16.40
2005,09,27,15,17,16.50
2005,09,27,15,18,16.50
2005,09,27,15,19,16.40
2005,09,27,15,20,16.30
2005,09,27,15,21,16.20
2005,09,27,15,22,16.20
2005,09,27,15,23,16.30
2005,09,27,15,24,16.40
2005,09,27,15,25,16.30
2005,09,27,15,26,16.30
2005,09,27,15,27,16.20
2005,09,27,15,28,16.10
2005,09,27,15,29,16.00
2005,09,27,15,30,15.90
2005,09,27,15,31,15.90
2005,09,27,15,32,15.90
2005,09,27,15,33,15.80
2005,09,27,15,34,15.80
2005,09,27,15,35,15.80
2005,09,27,15,36,15.80
2005,09,27,15,37,15.80
2005,09,27,15,38,15.80
2005,09,27,15,39,15.80
2005,09,27,15,40,15.80
2005,09,27,15,41,15.70
2005,09,27,15,42,15.60
2005,09,27,15,43,15.60
2005,09,27,15,44,15.60
2005,09,27,15,45,15.70
2005,09,27,15,46,15.70
2005,09,27,15,47,15.80
2005,09,27,15,48,15.80
2005,09,27,15,49,15.80
2005,09,27,15,50,15.80
2005,09,27,15,51,15.80
2005,09,27,15,52,15.80
2005,09,27,15,53,15.80
2005,09,27,15,54,15.70
2005,09,27,15,55,15.60
2005,09,27,15,56,15.50
2005,09,27,15,57,15.50
2005,09,27,15,58,15.50
2005,09,27,15,59,15.50
2005,09,27,16,00,15.50
2005,09,27,16,01,15.50
2005,09,27,16,02,15.50
2005,09,27,16,03,15.40
2005,09,27,16,04,15.40
2005,09,27,16,05,15.40
2005,09,27,16,06,15.40
2005,09,27,16,07,15.40
2005,09,27,16,08,15.40
2005,09,27,16,09,15.50
2005,09,27,16,10,15.60
2005,09,27,16,11,15.70
2005,09,27,16,12,15.80
2005,09,27,16,13,15.80
2005,09,27,16,14,15.80
2005,09,27,16,15,15.70
2005,09,27,16,16,15.70
2005,09,27,16,17,15.70
2005,09,27,16,18,15.80
2005,09,27,16,19,15.80
2005,09,27,16,20,15.80
2005,09,27,16,21,15.80
2005,09,27,16,22,15.80
2005,09,27,16,23,15.80
2005,09,27,16,24,15.80
2005,09,27,16,25,15.80
2005,09,27,16,26,15.80
2005,09,27,16,27,15.80
2005,09,27,16,28,15.80
2005,09,27,16,29,15.90
2005,09,27,16,30,16.00
2005,09,27,16,31,16.10
2005,09,27,16,32,16.10
2005,09,27,16,33,16.10
2005,09,27,16,34,16.10
2005,09,27,16,35,16.10
2005,09,27,16,36,16.00
2005,09,27,16,37,15.90
2005,09,27,16,38,15.80
2005,09,27,16,39,15.80
2005,09,27,16,40,15.80
2005,09,27,16,41,15.80
2005,09,27,16,42,15.70
2005,09,27,16,43,15.80
2005,09,27,16,44,15.70
2005,09,27,16,45,15.60
2005,09,27,16,46,15.60
2005,09,27,16,47,15.50
2005,09,27,16,48,15.50
2005,09,27,16,49,15.50
2005,09,27,16,50,15.50
2005,09,27,16,51,15.40
2005,09,27,16,52,15.40
2005,09,27,16,53,15.40
2005,09,27,16,54,15.40
2005,09,27,16,55,15.40
2005,09,27,16,56,15.50
2005,09,27,16,57,15.50
2005,09,27,16,58,15.50
2005,09,27,16,59,15.50
2005,09,27,17,00,15.60
2005,09,27,17,01,15.60
2005,09,27,17,02,15.60
2005,09,27,17,03,15.50
2005,09,27,17,04,15.50
2005,09,27,17,05,15.50
2005,09,27,17,06,15.50
2005,09,27,17,07,15.50
2005,09,27,17,08,15.40
2005,09,27,17,09,15.40
2005,09,27,17,10,15.30
2005,09,27,17,11,15.30
2005,09,27,17,12,15.40
2005,09,27,17,13,15.40
2005,09,27,17,14,15.40
2005,09,27,17,15,15.30
2005,09,27,17,16,15.30
2005,09,27,17,17,15.30
2005,09,27,17,18,15.30
2005,09,27,17,19,15.30
2005,09,27,17,20,15.30
2005,09,27,17,21,15.30
2005,09,27,17,22,15.30
2005,09,27,17,23,15.30
2005,09,27,17,24,15.30
2005,09,27,17,25,15.20
2005,09,27,17,26,15.20
2005,09,27,17,27,15.20
2005,09,27,17,28,15.20
2005,09,27,17,29,15.20
2005,09,27,17,30,15.20
2005,09,27,17,31,15.20
2005,09,27,17,32,15.20
2005,09,27,17,33,15.20
2005,09,27,17,34,15.20
2005,09,27,17,35,15.20
2005,09,27,17,36,15.20
2005,09,27,17,37,15.20
2005,09,27,17,38,15.20
2005,09,27,17,39,15.20
2005,09,27,17,40,15.20
2005,09,27,17,41,15.20